Weather History for Hanford, CA

Change the Weather History Date:

Friday, March 8, 2013

  Actual Average Record
Temperature  
Mean Temperature 49 °F 54 °F  
Max Temperature 54 °F 67 °F 78 °F (2004)
Min Temperature 44 °F 42 °F 31 °F (2012)
Degree Days  
Heating Degree Days 16    
Month to date heating degree days 68  
Since 1 July heating degree days 2129  
Cooling Degree Days 0    
Month to date cooling degree days 0  
Year to date cooling degree days 0  
Moisture  
Dew Point 45 °F    
Average Humidity 86    
Maximum Humidity 100    
Minimum Humidity 71    
Precipitation  
Precipitation 0.45 in 0.07 in 0.45 in (2013)
Month to date precipitation 0.49 0.60  
Year to date precipitation 1.16 4.37  
Since 1 July precipitation 3.16 7.71  
Snow  
Snow 0.00 in - - ()
Month to date snowfall 0.0  
Since 1 July snowfall 0.0  
Snow Depth 0.00 in    
Sea Level Pressure  
Sea Level Pressure 29.91 in    
Wind  
Wind Speed 6 mph (SW)    
Max Wind Speed 14 mph    
Max Gust Speed 20 mph    
Visibility 9 miles    
Events Rain    
T = Trace of Precipitation, MM = Missing Value Source: NWS Daily Summary

Daily Weather History Graph

Daily Weather History Graph

Search for Another Location

Airport:

Trip Planner

Search our weather history database for the weather conditions in past years. The results will help you decide how hot, cold, wet, or windy it might be!

Date:

Astronomy

Mar. 08, 2013 Rise Set
Actual Time 6:18 AM PST 6:00 PM PST
Civil Twilight 5:53 AM PST 6:25 PM PST
Nautical Twilight 5:23 AM PST 6:55 PM PST
Astronomical Twilight 4:53 AM PST 7:25 PM PST
Moon 4:02 AM PST (3/8) 3:04 PM PST (3/8)
Length of Visible Light 12h 32m
Length of Day
11h 41m
Waning Crescent, 11% of the Moon is Illuminated
Mar 8
Waning Crescent
Mar 11
New
Mar 19
First Quarter
Mar 27
Full
Apr 2
Last Quarter

Hourly Weather History & Observations

Time (PST) Temp. Windchill Dew Point Humidity Pressure Visibility Wind Dir Wind Speed Gust Speed Precip Events Conditions
12:53 AM 48.9 °F - 45.0 °F 86% 29.85 in 8.0 mi West 3.5 mph - 0.02 in Rain Light Rain
1:39 AM 48.2 °F - 44.6 °F 87% 29.82 in 10.0 mi WSW 6.9 mph - 0.00 in   Overcast
1:53 AM 48.0 °F - 45.0 °F 89% 29.82 in 10.0 mi West 8.1 mph - 0.00 in   Overcast
2:07 AM 46.4 °F 41.9 °F 44.6 °F 93% 29.81 in 10.0 mi West 9.2 mph - N/A   Overcast
2:32 AM 46.4 °F 41.5 °F 44.6 °F 93% 29.80 in 10.0 mi West 10.4 mph - 0.00 in Rain Light Rain
2:42 AM 46.4 °F 42.4 °F 44.6 °F 93% 29.80 in 10.0 mi WSW 8.1 mph - 0.00 in Rain Light Rain
2:53 AM 46.9 °F - 44.1 °F 90% 29.81 in 9.0 mi WSW 10.4 mph - 0.01 in Rain Light Rain
3:35 AM 44.6 °F 38.8 °F 44.6 °F 100% 29.79 in 7.0 mi West 11.5 mph - 0.05 in Rain Light Rain
3:53 AM 45.0 °F 39.3 °F 44.1 °F 97% 29.80 in 7.0 mi West 11.5 mph - 0.08 in Rain Light Rain
4:49 AM 44.6 °F 40.2 °F 42.8 °F 93% 29.80 in 10.0 mi West 8.1 mph - 0.04 in Rain Light Rain
4:53 AM 45.0 °F 41.2 °F 43.0 °F 93% 29.81 in 8.0 mi West 6.9 mph - 0.04 in Rain Light Rain
5:15 AM 44.6 °F 40.2 °F 42.8 °F 93% 29.80 in 6.0 mi West 8.1 mph - 0.03 in Rain Light Rain
5:53 AM 45.0 °F 41.8 °F 43.0 °F 93% 29.83 in 8.0 mi WSW 5.8 mph - 0.05 in Rain Light Rain
6:53 AM 45.0 °F 41.8 °F 43.0 °F 93% 29.85 in 7.0 mi WSW 5.8 mph - 0.04 in Rain Light Rain
7:07 AM 44.6 °F 40.7 °F 42.8 °F 93% 29.85 in 5.0 mi SW 6.9 mph - 0.02 in Rain Light Rain
7:50 AM 44.6 °F 40.7 °F 42.8 °F 93% 29.87 in 4.0 mi WSW 6.9 mph - 0.09 in Rain Rain
7:53 AM 45.0 °F 40.1 °F 43.0 °F 93% 29.88 in 4.0 mi SW 9.2 mph - 0.10 in Rain Light Rain
8:53 AM 46.0 °F 43.1 °F 44.1 °F 93% 29.89 in 8.0 mi WSW 5.8 mph - 0.05 in Rain Light Rain
9:20 AM 46.4 °F 43.5 °F 44.6 °F 93% 29.90 in 9.0 mi WSW 5.8 mph - 0.01 in Rain Light Rain
9:53 AM 46.9 °F - 45.0 °F 93% 29.92 in 9.0 mi WSW 5.8 mph - 0.01 in Rain Light Rain
10:05 AM 46.4 °F 43.5 °F 44.6 °F 93% 29.91 in 8.0 mi WSW 5.8 mph - 0.01 in Rain Light Rain
10:53 AM 48.0 °F - 45.0 °F 89% 29.94 in 10.0 mi West 6.9 mph - 0.01 in   Overcast
11:16 AM 48.2 °F - 46.4 °F 93% 29.93 in 10.0 mi West 6.9 mph - N/A   Overcast
11:26 AM 48.2 °F - 44.6 °F 87% 29.93 in 10.0 mi WSW 6.9 mph - N/A   Overcast
11:36 AM 48.2 °F - 44.6 °F 87% 29.93 in 10.0 mi West 8.1 mph - N/A   Overcast
11:48 AM 48.2 °F - 44.6 °F 87% 29.93 in 10.0 mi West 6.9 mph - N/A   Overcast
11:53 AM 48.9 °F - 44.1 °F 83% 29.94 in 10.0 mi West 6.9 mph - N/A   Overcast
12:45 PM 51.8 °F - 42.8 °F 71% 29.92 in 10.0 mi South 3.5 mph - N/A   Overcast
12:53 PM 51.1 °F - 44.1 °F 77% 29.93 in 10.0 mi SSE 4.6 mph - N/A   Overcast
1:44 PM 50.0 °F - 46.4 °F 87% 29.91 in 10.0 mi ESE 10.4 mph - N/A   Overcast
1:53 PM 48.9 °F - 46.0 °F 90% 29.93 in 10.0 mi ESE 8.1 mph - N/A   Overcast
2:20 PM 50.0 °F - 46.4 °F 87% 29.92 in 10.0 mi SE 9.2 mph - N/A   Overcast
2:53 PM 51.1 °F - 46.9 °F 86% 29.93 in 10.0 mi ESE 6.9 mph - N/A   Overcast
3:53 PM 53.1 °F - 46.0 °F 77% 29.93 in 10.0 mi ESE 8.1 mph - N/A   Partly Cloudy
4:12 PM 51.8 °F - 46.4 °F 82% 29.92 in 10.0 mi ESE 9.2 mph - N/A   Mostly Cloudy
4:26 PM 51.8 °F - 46.4 °F 82% 29.92 in 10.0 mi ESE 9.2 mph - N/A   Mostly Cloudy
4:53 PM 50.0 °F - 45.0 °F 83% 29.94 in 10.0 mi ESE 9.2 mph - N/A   Mostly Cloudy
5:12 PM 48.2 °F - 44.6 °F 87% 29.94 in 10.0 mi ESE 9.2 mph - N/A   Mostly Cloudy
5:53 PM 48.0 °F - 44.1 °F 86% 29.96 in 10.0 mi ESE 6.9 mph - N/A   Partly Cloudy
6:53 PM 46.9 °F - 44.1 °F 90% 29.99 in 10.0 mi ESE 5.8 mph - N/A   Overcast
7:53 PM 46.9 °F - 44.1 °F 90% 30.01 in 10.0 mi SSE 4.6 mph - N/A   Overcast
8:53 PM 46.9 °F - 45.0 °F 93% 30.03 in 6.0 mi Calm Calm - 0.03 in Rain Light Rain
9:53 PM 46.9 °F - 44.1 °F 90% 30.06 in 9.0 mi ENE 3.5 mph - 0.00 in   Mostly Cloudy
10:10 PM 46.4 °F 43.5 °F 44.6 °F 93% 30.05 in 8.0 mi ENE 5.8 mph - N/A   Mostly Cloudy
10:45 PM 46.4 °F 44.3 °F 44.6 °F 93% 30.05 in 10.0 mi ESE 4.6 mph - N/A   Overcast
10:53 PM 46.0 °F 43.9 °F 44.1 °F 93% 30.06 in 10.0 mi SSE 4.6 mph - N/A   Overcast
11:53 PM 46.0 °F - 44.1 °F 93% 30.07 in 9.0 mi Calm Calm - N/A   Overcast